OPS 4682 DEB, 38449

Orbit data source: Space-Track

OPS 4682 DEB, 38449 is space debris in LEO originally from a launch on Sat, 03 Apr 1965 UTC launched from the Air Force Western Test Range (AFWTR). Debris objects in space refer to the collection of defunct objects orbiting the Earth. Examples of debris include non-operational satellites, rocket bodies, and fragments generated from explosions, collisions, or faulty payload assembly.

Loading next visibility...
Identifier
38449, 1965-027FE
Orbit
LEO
Country
Flag of USUS
Related business
Manufacturer
Unknown
Mission
Spacecraft
Bus & Motor
Unknown
Mass
Unknown
Launch date (UTC)
1965-04-03 (61 years ago)
Launch vehicle
Unknown
Launch site
Air Force Western Test Range (AFWTR)
Object type
Payload
Rocket body
Debris
Shape & HBR
Unknown shape, 0.1 m
Radar Cross Section
Medium (>0.1 m² and <1 m²)

Expand to show TLE details & history
Last TLE update: 21 hours ago

TLE from 21 hours ago
0 OPS 4682 DEB
1 38449U 65027FE  26235.16664458 -.00000059  00000-0 -23466-3 0  9996
2 38449  90.2522  12.5173 0030141 354.5914   5.4875 12.95296207596304
Epoch: 2026-08-23T03:59Z
TLE epoch observation values (Epoch: 2026-08-23T03:59:58.091Z)
Latitude
-0.00009°
Longitude
-18.94134°
Altitude
1,260.467 km
Speed
7.236 km/s
True Right ascension
00h 50m 04s
True Declination
0° 00' 00"
Sunlit
Object was in full shadow at epoch
Visualization orbit readout
Latitude
Unknown
Longitude
Unknown
Altitude
Unknown
Speed
Unknown
Apparent Right ascension
Unknown
Apparent Declination
Unknown
Sunlit
N/A
Visualization observer readout
Local Sidereal Time
15:53:46
Azimuth
Unknown
Elevation
Unknown
Doppler factor
Unknown
Orbital elements
Apogee altitude
1,300.782 km
Perigee altitude
1,254.631 km
Semi-major axis
7,655.843 km
Eccentricity
0.00301
Inclination
90.2522°
RAAN
12.5173°
Arg. of periapsis
354.5914°
True anomaly
5.52065°
Mean anomaly
5.4875°
Eccentric anomaly
5.50406°
Mean motion
3.24006 °/min
Orbital period
111.11 mins
BSTAR
-0.00023466
Loading maneuver chart data...
Computing Atmospheric mass density...
Loading historical data...
Loading historical data...
Loading historical data...
Loading historical data...
Loading historical data...
Loading historical data...
Loading historical data...

Documentation

Showing up to 5 results
|